RH
6 6 7 9 11 16 20 20 18 15 18 26 31 31 33 36 37 37 36 35 35 35 34 33 32 32 31 31 31 33 34 34 32 30 28 27 27 27 27 27 27 26 27 28 31 35 36 37 38 37 39 41 42 44 45 46 46 47 48 45 42 41 40 41 41 39 36 35 35 34 33 32 31 27 23 19 25 35 31 25 18 16 23 17 7 8
5 6 6 10 13 15 20 19 16 13 14 23 32 33 36 38 37 37 39 39 37 35 34 33 33 32 32 32 33 34 34 33 32 31 27 24 26 29 30 29 27 26 27 29 29 31 33 35 35 36 38 40 41 44 44 45 46 45 42 38 36 33 30 32 36 36 36 37 37 34 29 24 19 14 12 9 11 16 14 8 6 7 8 6 5 6
5 6 7 10 12 15 20 19 14 14 13 18 26 31 35 37 37 39 40 42 42 40 39 36 33 32 33 35 36 36 33 31 33 35 32 26 24 28 27 27 28 28 29 28 27 27 28 31 34 34 36 38 41 43 43 43 42 40 36 33 32 29 27 30 33 36 38 37 31 24 17 12 10 9 8 7 7 6 6 6 6 5 5 5 5 5
5 6 7 8 10 13 18 18 14 13 13 15 19 22 25 28 32 37 39 42 45 45 42 38 36 36 36 38 38 38 37 36 36 38 38 33 27 26 24 24 27 29 29 28 27 27 28 31 33 33 33 36 38 39 38 37 35 35 34 32 30 28 28 30 33 35 33 26 18 12 10 10 10 10 9 9 9 8 8 7 6 6 6 6 5 5
5 5 6 7 9 11 15 17 14 13 13 15 16 17 19 20 24 30 34 40 45 47 42 39 43 42 38 39 38 37 39 39 39 39 40 39 34 30 31 32 29 27 29 29 28 27 26 27 29 31 33 35 36 35 33 33 33 34 33 30 27 27 27 26 26 26 22 15 12 11 12 12 12 13 12 10 8 7 7 6 6 6 5 5 5 5
5 5 5 6 8 9 12 15 14 13 13 13 16 18 18 19 20 24 30 37 44 49 43 41 50 48 37 36 36 36 38 38 39 39 38 40 39 36 36 37 35 31 29 29 29 29 28 28 29 31 33 33 31 31 32 34 35 33 29 26 24 23 22 19 17 17 15 12 12 13 13 13 16 16 14 12 10 9 9 10 10 10 10 9 7 6
5 5 5 6 7 7 11 15 14 13 12 13 17 19 19 19 19 22 28 35 41 44 39 39 48 47 37 33 32 34 36 36 38 39 36 37 40 39 38 37 37 36 32 27 26 28 30 31 31 29 27 25 25 29 32 32 32 29 23 20 19 19 17 15 15 16 14 13 14 15 13 16 20 20 18 15 13 14 15 17 18 19 20 19 17 14
5 5 6 7 7 7 11 15 14 13 12 13 17 19 19 18 18 20 23 29 33 35 37 40 44 45 39 32 31 33 35 36 37 36 34 34 36 38 38 38 37 37 35 30 25 22 24 27 28 26 24 22 24 29 28 25 25 22 19 17 16 15 15 15 16 16 15 15 17 16 15 19 24 25 23 20 19 19 19 20 22 26 31 33 32 27
5 4 6 8 9 9 12 14 14 13 12 13 16 18 18 17 18 18 17 19 24 32 42 44 44 47 43 32 31 34 34 34 32 29 29 30 31 33 35 36 37 36 37 36 30 24 22 22 22 25 26 27 28 28 24 22 22 21 19 17 15 14 15 15 16 16 16 17 19 18 17 22 27 28 28 29 29 29 30 32 34 37 41 43 44 39
9 6 5 8 11 11 10 13 14 12 12 13 14 16 17 17 17 17 18 18 23 36 44 42 42 47 44 33 31 34 33 30 26 23 23 24 27 29 30 33 35 36 39 39 37 34 29 24 22 25 28 30 31 28 26 26 24 22 20 17 16 15 15 16 17 17 17 18 19 19 19 22 26 28 29 32 36 38 40 43 44 46 47 49 51 49
12 9 7 8 11 12 11 13 14 12 13 13 13 15 16 17 17 17 18 20 32 44 40 34 36 41 43 35 29 29 26 23 22 20 20 21 23 24 25 28 30 33 37 39 40 42 38 31 27 28 28 28 29 29 29 28 24 22 20 19 18 17 17 17 17 18 18 19 20 20 20 23 24 26 28 31 35 38 40 44 48 50 51 53 55 55
13 12 11 10 10 12 13 13 13 13 13 13 13 15 16 18 17 18 22 26 42 49 35 28 33 40 44 35 26 24 19 18 21 20 20 19 19 19 19 22 25 29 34 37 40 42 43 37 29 27 27 27 27 26 26 26 25 24 22 22 21 20 20 20 19 19 19 20 21 21 22 23 24 25 27 30 33 36 38 43 47 50 52 55 58 60
17 13 12 12 12 12 13 13 13 13 13 14 15 15 17 20 17 24 37 40 44 40 26 25 34 43 45 32 24 24 18 17 20 19 19 17 17 18 18 19 22 25 30 35 38 40 44 41 34 31 29 27 26 25 24 25 25 25 25 24 24 23 23 24 23 21 21 21 22 23 24 25 26 27 28 31 33 34 37 42 45 48 51 54 58 61
18 15 12 12 13 13 13 13 12 13 14 14 15 15 18 23 22 32 47 47 40 31 22 26 36 44 43 30 23 22 17 16 17 19 20 17 17 18 18 20 22 24 27 31 35 38 41 42 41 40 38 33 28 25 24 24 25 26 27 27 27 26 26 27 27 26 24 23 23 24 25 27 28 29 31 32 33 34 37 41 44 46 48 51 55 58
18 17 13 10 12 12 12 13 12 13 13 13 14 14 16 21 22 28 38 37 30 26 25 30 40 46 38 24 16 14 13 14 16 18 21 19 19 20 20 22 23 24 26 28 31 34 37 40 42 43 44 42 37 31 27 25 25 26 26 28 29 29 29 30 30 30 29 26 25 25 26 27 28 30 32 33 34 35 37 40 43 45 46 48 51 53
18 18 14 10 10 11 12 12 12 13 14 13 14 14 15 17 16 18 22 22 20 25 32 35 38 37 28 17 13 12 13 15 17 19 21 20 19 19 21 22 22 23 25 26 28 30 33 37 41 43 45 45 45 41 36 32 31 30 28 28 29 30 32 32 32 33 32 30 28 28 28 28 29 29 31 33 34 35 37 39 40 42 44 46 48 50
17 16 14 12 9 9 11 12 12 13 14 14 14 14 15 15 15 15 17 18 21 27 32 31 29 28 24 19 15 14 15 14 16 18 19 19 19 18 19 19 19 21 24 26 26 27 30 34 38 42 44 45 46 46 45 44 44 42 38 34 33 32 32 32 33 34 34 33 32 31 30 30 30 31 31 32 33 35 37 39 39 41 43 45 46 48
17 16 14 13 10 9 9 11 12 13 13 14 13 13 14 14 15 15 18 26 32 33 29 24 24 24 25 22 15 13 15 13 15 17 16 19 19 17 16 16 18 20 22 25 26 27 29 31 34 37 40 43 45 46 47 49 50 50 48 47 46 44 42 40 38 35 36 37 36 35 33 32 33 33 33 34 34 36 38 39 40 41 44 46 46 47
18 16 15 14 12 10 9 10 12 12 13 13 12 13 13 15 16 15 19 26 31 38 35 24 22 23 21 18 13 12 13 11 13 14 13 16 17 14 14 15 17 18 22 25 25 26 28 29 32 34 37 40 42 45 46 49 52 53 53 54 54 55 54 49 43 40 38 38 38 39 37 35 34 33 34 36 36 38 40 41 41 42 45 48 48 48
19 17 16 15 13 11 10 9 11 11 12 12 12 13 12 13 15 14 18 19 21 38 44 28 23 24 17 13 12 11 12 12 13 14 13 14 14 13 14 16 16 18 22 24 24 25 27 27 29 33 35 38 40 42 44 46 50 52 54 55 56 58 59 55 52 49 45 42 40 40 40 39 37 36 35 35 36 38 40 41 42 43 46 47 48 49
21 18 16 15 14 13 11 10 10 11 12 12 11 13 12 13 14 13 16 15 15 33 44 35 30 24 13 11 12 11 13 14 14 14 14 14 13 13 14 15 16 18 21 25 24 23 24 24 28 33 35 36 39 41 42 44 47 49 51 53 54 57 59 60 60 58 55 50 45 42 42 42 40 37 35 34 35 36 37 39 41 44 46 47 48 50
20 19 17 16 15 14 12 11 10 10 11 12 11 12 12 12 13 14 19 18 13 21 30 30 28 20 11 12 12 11 13 13 12 13 13 13 14 13 13 13 15 18 21 23 23 22 22 19 23 31 34 35 38 40 41 43 44 46 48 50 53 55 57 60 61 62 62 59 55 51 47 44 42 39 36 35 34 34 35 37 40 44 46 47 50 51
20 19 18 17 16 15 14 13 12 12 11 11 12 11 11 11 12 14 19 18 14 16 18 19 20 15 11 12 11 11 13 12 12 13 11 13 14 14 14 13 15 18 20 21 21 21 19 15 18 28 34 35 36 37 39 40 42 44 46 48 50 53 55 57 60 62 64 64 64 61 56 49 42 37 36 35 35 38 40 38 41 45 46 49 52 53
20 19 17 17 16 15 14 13 13 13 13 13 13 12 11 12 11 12 14 13 13 16 17 20 22 16 11 11 11 10 11 11 12 12 10 11 13 14 14 14 16 19 19 20 20 19 17 14 15 22 28 31 33 35 38 40 42 43 44 46 49 51 53 56 58 61 63 66 66 66 65 56 44 37 37 39 43 50 53 46 42 45 48 51 54 55
18 18 17 17 19 18 17 16 14 13 13 13 14 13 13 12 11 12 12 12 13 14 14 19 24 17 11 11 11 9 10 10 10 10 10 11 12 14 15 15 17 18 18 18 18 18 16 15 13 14 18 24 30 33 35 36 39 41 44 46 47 49 52 53 56 59 62 66 67 68 69 66 61 52 43 44 52 64 69 56 44 46 51 52 55 59
19 18 17 18 23 25 23 20 16 13 13 13 13 13 13 13 13 12 12 14 15 14 12 15 17 13 10 11 11 10 10 10 10 10 10 11 13 14 16 17 17 17 17 18 17 17 17 16 15 13 14 18 22 25 25 26 30 34 38 42 44 46 49 50 53 57 60 65 68 70 72 70 65 52 41 47 60 71 76 62 46 48 52 53 57 61
20 18 17 17 19 20 19 16 13 12 13 12 12 13 13 13 13 12 13 14 14 14 14 13 11 10 10 10 10 11 11 11 11 11 12 12 12 13 15 16 17 17 17 17 17 17 17 16 15 14 14 16 16 17 17 18 22 25 29 36 41 44 46 49 52 54 57 63 68 72 75 67 54 45 46 57 63 70 77 66 49 49 53 55 58 60
19 19 18 17 16 16 15 12 11 11 12 12 12 12 12 13 13 12 12 13 12 15 17 13 10 11 10 9 10 11 11 12 12 12 12 13 12 12 14 15 17 18 17 18 18 17 17 17 16 14 14 15 15 16 17 17 18 20 23 29 36 41 44 47 50 51 54 59 64 71 76 69 60 59 62 65 63 67 75 69 55 50 53 57 58 59
19 19 19 17 17 17 15 14 12 10 10 11 12 13 12 12 12 11 12 12 11 14 15 12 11 11 9 9 10 11 11 11 12 13 13 12 12 13 14 15 17 18 17 18 18 17 18 18 15 15 16 17 19 19 19 19 20 21 22 26 33 41 45 46 48 49 51 54 58 64 67 67 71 75 71 70 71 71 73 71 65 58 55 57 59 59
25 19 18 18 17 16 16 16 15 13 12 11 10 11 11 12 13 12 12 12 11 12 12 11 11 11 10 10 10 10 12 11 11 13 13 12 12 12 13 14 16 17 18 18 18 18 19 18 16 18 21 22 22 22 23 25 26 27 28 31 35 39 42 44 46 49 52 56 58 57 56 61 73 80 76 75 79 78 75 75 73 65 58 57 60 61
31 23 19 18 17 17 16 16 16 15 15 13 12 11 11 10 11 12 12 13 12 12 12 11 11 11 11 11 10 11 12 11 11 12 12 12 12 12 14 15 15 17 18 19 18 19 19 19 18 20 24 25 23 24 26 28 31 33 34 37 40 41 43 46 49 53 56 60 62 59 57 59 68 81 86 85 85 83 81 79 76 68 59 58 61 63
33 29 24 22 21 18 16 15 16 15 14 14 14 13 12 12 11 11 11 11 11 12 12 12 12 12 11 11 10 10 11 11 11 11 12 13 13 14 15 15 16 18 19 19 19 20 21 20 19 21 25 26 27 28 29 31 35 36 37 41 44 45 49 52 55 58 61 64 67 67 66 64 66 79 90 88 83 82 83 84 79 67 61 62 64 67
35 33 30 29 27 22 18 16 15 14 16 17 15 13 13 13 11 11 10 10 10 11 11 12 12 12 12 11 10 10 11 11 11 11 11 13 14 15 16 16 18 19 20 20 20 21 22 22 23 25 28 29 31 32 32 33 34 35 38 44 46 48 53 56 57 59 62 66 70 72 72 69 69 80 88 84 81 85 87 85 78 67 65 67 68 70
36 35 32 31 29 26 23 18 15 17 20 18 15 13 13 12 11 11 10 9 10 10 10 11 11 11 12 11 10 10 11 11 11 11 11 12 14 15 16 18 20 20 20 21 21 22 24 26 28 30 31 33 33 32 31 29 28 29 30 32 34 36 40 43 46 49 50 54 62 71 76 73 74 86 90 82 80 86 88 86 78 68 65 67 70 72
36 35 33 31 30 29 26 21 21 25 21 15 14 14 13 12 12 11 10 10 10 10 11 11 12 12 11 11 10 10 11 11 11 11 12 14 15 17 19 20 21 21 21 21 22 25 27 29 31 32 32 32 30 29 28 27 25 25 25 24 24 24 24 26 29 32 32 35 45 60 67 67 74 88 89 82 81 82 84 86 79 69 69 72 72 66
35 35 32 30 30 31 27 22 24 26 19 13 15 15 13 14 14 12 13 12 11 12 13 12 12 12 11 12 11 11 11 12 12 13 14 16 18 20 22 22 22 22 22 23 26 29 30 31 32 31 31 30 29 29 28 27 27 26 24 24 24 24 24 25 25 26 28 31 40 50 55 61 73 81 78 79 82 79 78 82 80 76 76 72 62 53
36 35 33 32 33 32 28 23 22 25 26 24 23 21 17 16 16 16 17 17 14 13 13 12 13 13 12 12 12 12 12 13 15 16 17 18 21 22 22 23 23 23 24 27 31 31 31 31 31 31 31 30 29 29 28 29 29 27 24 23 22 21 22 22 24 27 30 32 38 43 48 60 74 73 69 76 80 75 73 77 77 74 69 59 52 51
37 37 35 35 35 32 30 32 35 38 38 33 29 26 22 21 22 21 20 20 19 17 16 15 16 16 15 14 14 13 14 15 17 18 20 21 23 23 23 24 24 24 28 31 33 32 32 32 31 31 30 30 29 31 31 31 29 26 24 23 22 22 19 17 19 22 23 27 32 33 39 57 72 73 73 77 78 73 71 70 66 61 55 51 52 53
37 38 37 37 37 34 31 35 41 42 37 31 30 29 26 25 25 21 20 22 21 20 20 19 18 18 17 16 16 15 15 16 17 20 23 24 25 24 24 25 25 27 32 35 33 32 32 31 31 30 30 30 32 33 31 29 27 27 28 26 25 24 21 18 17 16 18 24 26 28 42 61 72 75 76 74 72 73 69 60 53 51 50 49 50 51
39 40 38 36 39 39 35 34 38 38 34 32 32 30 29 27 23 21 26 28 24 22 22 21 20 20 19 18 18 17 18 19 20 23 25 26 25 26 26 27 29 32 34 34 32 31 31 30 30 31 31 33 34 33 30 30 31 32 32 29 27 25 22 20 17 15 19 22 22 30 52 67 70 70 69 70 73 72 62 52 48 50 51 50 47 48
43 41 39 36 39 44 43 40 40 40 38 36 32 28 29 28 22 23 28 28 24 24 25 23 22 22 21 21 20 19 21 24 25 26 29 29 28 30 30 31 32 33 33 32 32 32 33 34 34 35 35 35 34 33 32 33 35 34 33 30 28 26 23 20 16 14 17 21 24 37 55 66 69 69 68 71 75 68 57 56 59 61 59 54 50 51
44 42 40 37 40 47 49 46 44 41 39 37 33 29 29 29 25 24 26 26 26 26 26 26 25 22 22 23 24 23 24 26 28 29 30 31 32 33 33 33 33 33 33 33 33 33 34 37 38 39 37 35 34 34 35 35 34 33 31 29 28 26 23 18 15 14 15 21 32 47 57 61 64 67 68 72 76 69 60 62 65 64 60 54 52 56
43 44 43 40 43 52 51 45 45 46 42 38 35 32 30 30 27 24 23 27 29 28 28 28 26 22 22 24 26 28 28 28 30 29 29 30 32 32 33 33 34 34 35 35 35 36 36 37 38 38 37 36 36 36 36 35 33 31 30 29 27 25 21 16 13 12 16 26 41 55 61 60 58 59 62 66 69 63 55 55 57 55 54 54 57 64
42 45 45 42 48 59 56 47 48 51 44 38 35 33 31 31 31 28 27 29 32 34 34 32 27 25 26 26 27 30 31 31 33 33 32 33 34 35 36 38 39 41 42 41 40 40 39 38 38 39 39 40 40 39 38 36 34 31 29 27 25 21 17 14 12 13 21 35 48 57 59 55 55 60 64 63 61 55 52 56 58 54 55 61 64 63
39 40 41 41 46 53 53 49 50 51 47 42 39 36 35 39 41 40 37 35 36 39 38 34 30 31 32 32 31 32 33 33 34 35 35 36 37 38 40 42 44 45 44 42 40 39 39 39 39 40 41 41 41 40 38 36 33 30 27 25 22 18 15 12 13 19 30 42 54 59 55 49 52 65 71 65 58 56 57 61 62 61 63 67 61 50
40 36 35 38 42 46 49 48 46 46 47 48 47 44 43 48 51 48 44 41 40 41 41 37 35 36 37 37 36 35 35 36 36 37 38 39 39 40 41 42 43 43 41 40 41 42 42 43 42 42 42 42 41 38 35 33 30 27 25 22 18 15 14 12 16 26 38 49 58 60 56 54 61 70 68 60 58 61 62 60 60 64 67 64 54 44
53 45 40 38 36 40 49 51 47 44 44 44 46 46 46 51 54 51 47 43 39 40 42 39 36 37 38 38 38 38 38 39 40 40 40 40 40 41 41 41 41 42 41 42 43 44 46 47 46 46 45 42 39 34 30 28 25 22 20 18 15 14 13 15 23 35 45 54 60 58 57 65 74 70 60 55 59 62 59 55 57 62 62 55 45 39
71 62 54 47 40 39 48 53 50 48 47 46 48 49 47 48 49 47 45 43 40 39 41 39 37 39 39 37 38 38 39 40 41 40 39 39 39 39 39 40 41 42 42 42 42 42 46 49 49 47 45 40 34 29 25 22 19 18 16 14 14 14 13 17 31 43 50 56 57 52 54 67 69 58 51 52 55 54 53 55 59 57 50 42 37 36
84 77 67 62 55 49 51 56 54 50 50 52 55 56 52 45 43 44 46 46 44 42 43 41 40 40 40 39 39 39 40 41 40 39 40 40 39 40 40 39 40 42 43 44 44 45 48 49 46 43 40 35 31 26 21 18 15 14 14 14 14 15 17 25 39 49 53 58 57 51 53 59 54 46 46 50 52 54 57 58 54 46 39 37 38 40
91 86 75 71 67 60 57 59 55 49 48 50 54 60 58 48 42 45 47 46 45 44 44 44 43 42 41 40 40 40 40 41 41 41 42 42 42 43 44 44 44 45 45 46 47 48 47 44 41 38 35 32 29 24 19 15 13 13 15 17 18 20 23 36 52 58 59 65 66 58 53 50 46 47 53 56 57 59 57 48 41 38 39 41 44 46
96 90 81 75 71 66 65 66 62 55 50 50 53 59 59 51 47 49 49 46 45 45 43 44 46 46 45 45 45 45 45 46 46 47 46 47 47 47 48 48 49 48 47 46 46 45 43 40 38 36 34 32 29 23 16 13 14 18 22 24 27 31 38 52 66 69 67 72 72 63 54 51 50 53 58 59 58 56 49 42 39 41 44 46 47 48
Wind_Speed
34 35 39 40 38 35 30 26 23 16 12 21 32 34 33 36 40 38 35 31 29 30 29 26 24 21 17 15 11 9 9 8 9 10 12 12 13 15 16 15 16 14 14 17 20 20 20 20 20 20 19 18 18 18 16 15 13 11 11 10 9 9 9 8 7 7 7 6 6 7 7 7 7 7 6 7 7 7 7 8 9 9 9 11 12 13
35 37 41 41 37 33 30 26 22 19 13 17 27 31 31 36 40 39 36 34 30 30 29 26 25 23 20 18 15 14 12 10 9 8 8 10 11 13 14 14 14 13 14 18 20 21 21 21 21 20 19 19 18 17 16 13 12 11 11 10 10 10 8 8 8 8 7 6 7 6 6 5 4 4 4 4 4 5 5 6 7 7 8 9 10 10
37 41 42 39 36 32 29 27 23 21 17 17 22 26 29 34 36 36 35 33 30 30 30 27 26 24 22 22 20 19 16 12 10 9 7 8 10 11 12 12 14 15 17 18 18 18 19 19 20 20 19 18 17 16 15 13 13 12 11 11 10 10 9 9 9 8 7 7 6 4 2 1 1 3 3 4 4 4 4 5 5 6 7 8 9 9
36 40 42 37 35 33 30 29 26 24 21 19 21 22 24 26 29 35 36 32 31 31 30 28 27 27 25 25 25 23 19 16 13 11 10 11 11 8 7 8 12 15 15 15 15 15 17 18 19 18 17 16 16 16 15 14 13 12 11 11 10 9 10 10 10 9 8 6 5 3 2 4 5 6 6 7 6 6 6 6 6 6 7 8 8 9
35 36 39 37 35 35 32 31 28 27 24 22 24 23 20 19 21 30 35 31 29 29 32 29 24 28 29 27 28 25 22 21 19 16 15 15 14 11 9 10 11 12 11 11 12 12 13 14 14 15 15 15 16 15 14 13 11 11 11 11 11 10 10 10 9 9 7 6 5 5 5 6 7 8 9 9 9 9 9 9 9 10 10 10 10 10
35 33 35 37 36 35 34 33 30 28 27 25 26 26 21 16 14 20 28 29 26 27 34 30 16 20 30 31 30 27 26 26 24 22 20 17 17 17 17 15 13 11 11 11 11 11 11 11 12 13 15 16 15 14 13 13 11 11 12 12 11 10 10 9 9 8 7 7 5 5 6 6 8 8 9 10 11 12 12 13 14 14 14 14 14 13
35 33 31 34 36 36 35 35 32 29 27 26 29 29 22 18 14 15 24 28 26 28 34 33 22 16 23 30 30 29 29 28 27 26 24 21 19 20 20 18 16 14 13 12 12 13 13 12 12 14 14 13 13 13 13 13 13 12 12 12 11 10 10 9 9 8 8 7 5 5 5 6 7 8 9 9 10 11 12 13 15 16 17 17 17 17
35 35 32 30 34 37 36 37 34 31 28 28 31 29 22 20 18 16 21 24 28 32 28 32 34 20 20 30 29 27 29 29 30 30 28 26 24 23 21 20 20 18 15 13 13 13 13 13 13 13 12 11 11 13 14 13 12 12 12 11 10 10 10 10 9 8 8 7 6 5 5 6 6 7 7 8 9 9 11 12 14 15 17 18 19 19
32 37 36 31 32 36 39 39 35 31 30 31 30 26 23 21 18 17 16 16 25 29 22 27 33 19 22 36 29 24 29 30 30 30 28 28 26 24 22 20 21 20 18 16 14 13 12 12 12 12 12 11 12 13 13 12 12 12 12 11 11 11 10 10 10 9 9 7 6 5 5 5 4 5 6 7 7 8 9 11 12 14 16 18 19 20
25 31 36 34 32 36 40 38 36 33 31 31 29 25 24 21 19 15 12 16 23 23 20 28 33 19 19 37 34 26 30 31 29 26 24 25 25 24 23 21 21 21 21 19 17 15 13 11 11 12 13 13 14 14 13 13 14 14 14 13 12 12 11 11 11 10 9 8 7 6 5 4 3 3 4 5 5 6 8 9 11 13 15 17 19 20
23 22 29 34 35 35 36 36 36 34 31 31 27 25 24 20 19 14 13 21 19 13 22 33 37 27 16 29 38 33 32 31 28 23 20 21 23 22 21 21 21 22 22 21 20 18 15 13 14 14 15 15 16 16 15 16 16 15 16 15 14 13 13 12 12 11 10 9 9 7 7 6 4 3 3 3 3 4 6 8 10 11 13 15 18 20
26 23 24 30 34 34 33 34 36 34 32 31 26 25 22 14 13 9 11 19 10 6 24 35 38 33 21 27 38 36 35 34 31 27 22 20 19 17 15 15 18 21 21 22 22 20 18 17 18 18 18 18 18 18 18 17 16 16 16 16 16 15 14 13 13 12 11 11 11 9 8 7 5 4 2 1 1 3 5 7 8 10 13 14 16 19
28 30 27 24 27 32 33 33 32 33 33 30 26 25 17 7 5 5 5 8 7 10 24 31 32 30 30 40 44 40 39 36 35 32 22 17 18 18 14 11 13 18 21 23 23 22 22 21 21 20 20 21 21 20 18 17 16 16 16 16 16 16 15 14 13 13 12 12 12 11 10 8 7 5 3 3 3 4 5 7 8 10 12 13 15 18
24 26 32 30 26 29 35 36 33 33 34 31 29 27 17 6 3 4 2 1 4 13 21 26 25 21 29 42 41 38 34 30 32 33 25 20 20 20 18 14 13 16 19 22 23 23 23 24 23 22 21 21 22 21 20 19 18 17 17 16 16 16 17 16 15 14 14 14 14 14 12 10 9 8 6 6 6 6 7 8 9 10 12 13 14 16
21 18 29 37 34 31 34 37 35 33 34 34 32 30 27 18 9 4 4 3 5 9 12 17 14 11 21 30 28 26 24 23 28 32 31 30 27 25 25 23 20 18 18 21 22 23 23 24 24 24 23 22 21 20 21 21 20 19 18 17 16 16 17 17 17 17 16 16 16 16 15 13 12 11 10 9 9 9 10 11 11 12 13 14 15 16
23 22 27 31 35 36 34 35 34 31 31 33 32 32 33 31 22 11 7 10 10 5 6 13 11 12 24 31 27 23 24 26 28 30 32 33 32 31 29 26 25 22 19 20 21 22 22 23 25 26 25 24 22 21 21 21 21 20 19 18 17 17 18 18 18 18 17 18 18 18 17 16 15 15 13 12 12 12 13 13 14 14 15 16 16 17
21 25 28 26 31 39 36 32 33 32 30 28 29 33 33 31 28 19 11 11 10 4 5 11 12 16 24 27 28 27 26 25 26 29 31 31 31 32 30 26 25 24 22 22 22 21 21 22 24 25 26 26 24 22 20 19 18 18 18 17 17 18 19 19 19 19 19 20 20 20 20 19 19 18 17 16 15 15 16 16 17 17 17 18 18 19
22 23 27 25 27 36 39 34 32 34 34 30 30 33 28 23 24 21 10 3 3 3 5 12 16 19 18 17 22 26 25 24 26 28 29 31 32 31 28 25 25 25 23 22 22 21 20 21 21 22 23 24 23 22 20 19 17 16 16 15 16 17 18 18 19 20 20 21 22 23 22 22 22 21 20 20 19 18 18 19 19 19 19 19 19 19
27 23 24 24 23 27 35 37 35 35 35 34 34 32 24 18 19 20 12 3 3 2 2 9 16 20 22 21 19 19 21 24 25 24 26 30 31 29 26 24 25 25 24 24 25 23 22 22 22 22 21 21 21 21 19 19 19 18 17 16 16 15 16 18 19 21 21 23 24 24 24 24 24 24 23 23 22 21 21 21 22 21 20 19 19 20
30 25 22 22 21 22 30 38 41 40 37 34 33 30 27 23 19 20 18 11 7 4 2 5 8 14 24 26 21 18 20 21 20 19 19 21 24 24 21 22 25 26 26 28 27 24 23 23 23 23 20 19 19 18 16 17 18 18 17 17 17 17 18 19 20 20 22 24 25 26 26 27 27 27 27 27 26 24 23 24 24 22 20 20 20 20
35 29 25 23 20 22 29 36 42 44 40 36 35 32 29 28 22 17 19 19 13 6 4 4 4 12 20 21 20 20 18 17 17 15 14 14 15 15 15 19 25 26 27 29 28 24 22 22 22 22 20 18 18 18 18 17 16 16 16 17 18 19 21 21 21 21 22 25 27 28 28 29 30 30 30 30 29 27 26 26 25 23 21 21 21 21
38 34 31 28 25 27 30 32 35 40 39 37 37 38 35 32 26 15 11 18 20 12 7 5 4 12 17 18 19 20 19 18 17 15 13 12 12 13 14 16 20 24 27 28 27 24 21 21 21 21 19 19 19 20 20 19 17 17 17 18 18 20 21 22 23 23 24 26 27 28 29 31 32 33 33 32 31 29 28 27 26 24 22 22 22 22
37 37 35 33 34 35 32 27 26 28 32 35 36 38 39 37 34 24 12 14 19 16 12 7 5 10 15 17 17 16 17 18 17 16 15 13 12 15 17 16 17 22 26 25 24 23 20 20 20 19 19 19 20 20 20 21 20 20 19 18 19 21 21 22 23 26 27 28 28 29 30 33 35 35 35 35 33 31 31 29 26 25 24 23 22 21
36 37 35 33 36 40 38 35 31 25 26 29 30 33 38 39 40 35 27 24 22 20 17 8 4 11 17 19 21 19 19 20 18 17 17 16 16 17 17 17 17 21 24 22 23 22 21 21 21 20 21 20 20 21 21 23 23 22 21 21 22 22 21 22 24 27 29 30 30 31 32 35 37 38 39 39 36 34 34 31 27 25 25 24 22 21
33 36 34 24 19 23 27 30 34 36 34 31 29 29 32 34 36 35 34 33 26 24 25 14 6 14 20 21 26 27 26 27 25 24 23 21 19 18 17 16 17 22 23 22 22 21 20 21 21 22 22 21 21 21 22 23 23 22 23 22 22 22 22 23 26 28 30 32 33 34 35 37 39 42 42 41 38 35 33 31 28 27 27 25 23 21
31 38 38 25 13 10 14 17 27 37 40 38 36 32 28 28 29 29 31 29 23 24 30 23 14 17 20 21 23 24 25 26 26 27 25 20 16 17 18 17 18 22 23 22 20 18 17 19 20 21 22 21 20 20 20 21 22 22 22 22 22 22 23 25 26 27 29 33 35 36 38 39 42 46 43 40 39 35 30 29 28 28 28 26 23 21
32 37 40 38 33 30 29 30 32 34 33 34 37 36 32 27 25 27 27 28 29 27 29 31 27 25 24 23 20 19 20 20 20 22 22 19 16 16 18 20 21 24 24 23 20 17 16 18 19 20 20 19 19 18 18 18 19 20 20 21 21 23 24 25 26 26 27 31 33 37 41 44 47 49 46 44 44 37 29 29 29 29 30 27 24 24
30 33 37 40 43 43 42 39 37 36 33 32 32 33 33 30 28 29 30 31 33 28 25 33 34 29 29 29 23 18 16 14 15 19 21 19 17 15 17 21 25 26 25 23 20 18 18 19 19 20 19 17 16 15 15 15 16 17 18 20 21 23 24 24 24 24 25 26 30 36 44 47 47 48 49 49 46 36 30 30 33 32 32 29 28 27
27 30 33 37 39 42 44 41 40 41 39 36 33 29 28 26 26 29 30 32 35 32 30 36 37 34 34 34 29 24 19 14 13 15 19 17 15 15 16 19 24 27 26 24 21 18 18 20 20 19 17 15 13 12 12 13 14 15 16 19 21 23 23 23 23 23 23 24 27 34 40 41 43 47 49 49 47 39 33 33 35 35 34 33 31 29
23 28 29 32 36 39 41 42 43 44 43 41 40 36 31 28 26 26 26 27 31 34 35 38 40 40 39 35 32 27 23 22 18 15 18 18 16 15 15 16 22 26 27 24 19 16 18 21 20 18 15 12 10 9 10 12 14 15 17 19 20 21 22 22 22 22 23 25 27 31 34 35 41 46 47 47 47 41 34 34 36 38 38 36 35 33
13 23 26 27 32 36 37 38 39 41 43 43 43 43 41 39 38 36 33 30 30 33 34 36 40 43 40 36 33 28 24 25 23 19 20 19 17 17 18 18 21 26 28 24 17 14 18 22 22 18 14 10 8 9 10 12 15 17 18 20 20 20 21 22 23 23 25 28 29 31 32 32 38 45 47 47 45 39 32 32 36 39 40 39 37 34
7 11 16 17 22 32 37 36 34 37 39 42 45 45 43 42 42 41 39 36 34 33 33 37 41 42 39 38 35 32 28 25 22 21 21 20 20 21 22 22 25 28 27 21 15 15 19 22 23 20 15 12 10 11 12 14 17 19 20 21 21 23 24 25 26 26 28 30 31 31 32 31 36 45 47 43 40 36 29 31 36 39 40 40 36 29
11 12 12 12 15 25 32 34 36 33 26 28 38 41 39 40 41 40 39 38 36 33 34 36 38 38 38 39 39 36 32 27 25 24 23 22 22 24 26 27 28 28 23 17 15 16 18 20 21 20 17 15 14 15 16 19 21 23 23 25 25 27 29 29 29 29 30 32 32 31 31 31 37 46 44 36 34 32 26 30 36 38 39 38 32 25
16 17 19 17 15 19 23 28 30 22 14 21 34 37 35 37 38 38 38 38 36 35 35 34 34 36 39 41 41 39 34 31 29 27 24 23 23 25 29 30 29 24 19 16 17 17 17 19 21 20 18 17 17 18 20 21 24 24 24 26 26 28 30 30 31 31 32 33 33 31 31 31 37 44 39 30 29 28 24 29 35 38 41 36 26 20
20 20 20 18 16 17 18 19 16 9 13 27 36 35 33 33 33 33 35 36 36 36 34 32 34 38 39 38 37 35 32 30 29 26 24 24 26 28 30 29 27 22 19 18 19 18 19 21 21 20 19 19 19 20 22 23 24 23 23 24 23 24 25 25 26 28 29 31 32 30 30 31 36 39 33 26 26 26 26 30 34 35 36 29 19 17
20 19 20 19 17 15 13 12 9 6 16 26 27 28 30 27 24 26 29 30 32 32 32 33 34 36 35 31 28 27 27 29 29 27 27 28 30 31 29 26 23 20 18 19 20 21 22 23 22 21 20 20 21 23 24 24 23 22 23 23 22 21 21 22 23 24 26 28 29 29 29 31 34 34 28 24 26 26 25 26 25 23 24 21 18 17
20 17 18 19 15 12 10 11 11 8 10 16 17 20 22 21 21 24 25 26 29 31 31 31 30 29 28 25 23 22 24 27 29 31 33 33 31 29 26 23 20 19 20 23 24 24 24 23 22 21 21 23 24 25 24 22 21 21 21 20 20 19 20 23 24 25 26 27 27 28 28 29 30 29 25 23 24 20 17 17 17 18 19 19 18 16
23 18 17 18 15 14 11 7 8 6 8 15 20 22 23 22 23 23 20 19 20 21 22 22 21 20 18 18 18 19 21 23 28 32 35 33 30 28 26 24 22 23 24 26 26 24 23 22 21 22 23 24 23 21 20 18 18 19 18 19 19 19 20 23 25 27 27 27 27 27 25 25 27 24 20 20 19 15 16 19 20 19 19 18 16 15
26 20 18 17 15 15 15 9 6 5 12 20 25 27 27 25 25 23 19 17 16 13 11 12 13 13 13 13 14 15 16 20 25 28 31 31 31 29 28 27 27 27 28 27 25 23 21 21 21 22 23 22 20 17 17 17 17 18 19 20 21 21 22 23 25 26 26 26 27 26 22 22 23 18 14 16 17 18 20 21 21 20 19 18 17 17
24 22 20 17 17 15 14 14 7 6 14 22 24 25 26 28 29 24 16 16 19 16 13 11 11 12 11 10 11 12 14 17 21 24 28 32 32 30 29 28 28 27 27 25 22 20 19 19 20 21 21 19 18 17 18 18 18 20 22 22 23 24 25 26 26 25 25 26 27 25 20 18 16 12 15 17 18 20 22 22 22 20 20 21 21 21
19 21 20 19 19 16 10 12 8 8 15 20 22 23 24 26 25 20 16 19 23 21 17 16 15 13 9 7 8 10 11 13 18 23 27 29 27 26 26 25 24 25 24 23 21 20 18 17 17 18 18 17 18 18 19 20 21 23 24 24 25 26 27 27 26 25 26 27 26 21 17 14 13 16 19 20 20 22 23 22 20 20 21 22 22 22
21 18 16 17 19 17 9 8 10 11 13 15 18 21 24 23 20 19 20 22 23 21 18 17 17 18 16 12 11 13 14 16 21 25 26 25 23 23 24 24 25 26 25 24 24 23 20 17 16 17 17 16 17 19 21 23 25 26 27 26 27 28 29 28 25 25 26 26 22 17 13 15 19 20 22 25 26 25 24 22 19 19 20 21 21 19
23 14 11 15 18 15 8 5 9 9 8 9 12 17 20 20 19 21 22 23 23 22 21 21 21 23 22 19 16 17 20 24 27 29 29 28 26 26 26 26 26 26 24 23 22 20 19 17 16 16 16 16 18 21 24 26 27 28 28 28 29 30 29 27 25 24 25 24 19 15 17 21 22 22 24 27 28 27 25 22 20 20 20 19 18 18
26 18 12 14 14 10 7 3 4 7 8 7 6 9 11 12 16 20 22 23 26 26 25 25 24 22 22 22 21 23 27 30 31 32 32 31 30 28 27 25 24 22 19 17 16 15 15 15 14 15 16 19 22 25 27 28 28 29 29 30 30 30 28 26 23 22 23 22 17 18 22 23 23 24 26 29 29 26 23 21 20 19 18 18 18 18
31 30 26 22 18 12 11 8 3 8 9 11 9 8 8 10 15 16 15 17 22 23 21 22 22 23 23 24 25 28 30 30 31 31 30 30 29 27 26 24 22 20 18 16 15 14 15 15 17 19 22 23 25 27 28 29 29 29 29 30 30 28 26 24 20 20 21 20 18 20 22 22 22 25 28 29 28 24 22 20 19 17 16 17 17 17
29 32 32 29 25 19 13 8 6 10 9 5 7 8 8 12 17 18 15 16 18 19 18 18 20 22 22 21 22 25 26 26 27 27 27 27 27 27 26 24 23 22 19 16 14 13 15 18 21 24 26 27 29 29 29 29 28 28 29 29 29 26 24 21 18 18 19 19 18 21 22 22 23 26 28 28 25 23 22 21 19 17 16 17 17 17
23 27 31 31 30 26 17 9 6 8 9 8 6 5 6 12 17 17 15 14 15 16 17 16 18 20 20 19 19 19 19 19 19 18 19 19 19 20 19 19 19 18 17 16 19 22 24 25 25 27 29 30 30 29 28 27 27 27 27 27 26 24 22 19 15 15 16 17 20 21 20 21 24 27 28 27 25 23 22 21 19 17 16 17 18 19
18 24 28 29 30 30 25 18 13 10 10 12 14 13 13 17 19 17 15 15 15 16 17 16 17 18 19 19 17 15 14 14 14 14 15 17 19 21 23 24 25 26 27 27 29 31 31 29 28 29 31 30 29 28 27 26 26 26 26 26 25 23 21 17 13 13 14 17 20 20 19 22 26 27 28 28 25 21 20 19 18 17 17 17 19 20
16 20 24 27 30 32 31 28 26 21 17 18 22 23 22 21 20 19 19 18 18 18 17 16 16 16 15 14 14 14 14 16 18 20 22 24 26 28 30 31 33 36 35 32 29 29 29 29 29 29 29 29 28 28 27 27 27 26 25 24 23 21 19 15 13 14 16 18 21 21 21 26 28 29 29 26 21 18 16 15 16 17 18 18 19 18
13 15 21 29 33 34 35 36 34 30 26 24 24 25 26 24 21 22 22 21 18 17 17 16 16 15 16 17 19 20 21 23 24 24 26 27 27 27 25 25 25 27 28 27 27 27 28 28 27 27 27 27 27 28 28 27 26 24 23 22 21 19 18 15 15 16 17 18 20 23 26 29 29 28 26 21 18 16 15 15 16 17 18 18 18 18
12 15 22 30 32 33 36 38 34 31 31 30 28 28 27 24 23 25 25 24 22 20 19 17 16 17 19 21 23 24 24 24 25 25 26 27 26 25 24 23 25 27 27 27 28 28 28 27 27 27 28 28 29 29 28 26 23 20 19 19 19 18 17 15 15 17 18 19 21 25 28 28 26 25 23 21 21 18 16 15 17 18 18 18 18 18
Wind_Direction
209 212 213 212 211 208 205 206 207 204 205 203 200 201 207 209 212 214 212 208 209 214 218 224 230 240 246 245 247 245 237 233 229 226 218 214 218 222 224 224 221 218 211 204 204 203 201 201 202 203 204 205 208 213 219 224 227 229 231 233 233 229 226 222 225 230 230 233 238 242 247 249 254 260 268 276 275 274 278 282 287 288 286 287 290 292
210 215 216 213 211 209 205 205 207 205 200 199 202 206 209 212 215 215 213 211 213 218 222 226 229 238 245 246 247 238 238 254 260 260 247 227 221 222 222 220 215 208 203 204 204 203 202 201 203 205 206 207 211 216 221 225 226 225 225 225 224 223 220 215 216 221 223 228 235 239 244 252 269 286 301 315 314 306 307 311 310 306 306 307 306 305
213 217 216 212 210 209 205 205 209 211 206 195 198 205 212 217 219 218 217 217 217 219 223 227 232 238 242 243 246 244 249 269 276 277 273 244 226 224 223 215 208 204 204 207 204 203 204 204 206 208 209 209 211 215 218 218 219 219 219 219 218 215 209 206 206 208 214 219 221 223 230 272 9 30 33 30 25 9 355 346 337 332 330 327 324 324
214 217 214 210 210 208 205 205 209 213 211 204 200 205 215 221 224 224 223 222 220 219 222 228 234 238 240 240 242 245 251 255 257 258 252 237 227 228 240 228 215 211 209 209 204 202 205 206 209 211 209 208 209 212 212 211 212 213 215 215 212 205 200 199 198 199 204 201 190 167 116 86 77 70 66 62 55 48 38 25 15 6 359 353 347 344
215 217 213 210 210 208 205 206 209 212 213 212 211 213 217 220 228 229 225 222 221 222 224 226 233 239 240 242 244 245 246 244 241 240 236 233 225 216 227 230 222 219 215 210 205 203 207 209 211 212 209 208 208 210 210 209 208 208 211 212 207 200 195 193 191 192 188 174 156 131 108 93 85 77 72 69 65 61 56 49 42 34 28 21 11 4
217 216 214 212 210 209 207 207 210 213 215 218 218 218 218 221 234 233 225 219 215 220 226 223 228 244 240 242 248 246 246 245 241 238 237 234 225 218 220 222 219 221 216 208 202 202 209 213 214 212 210 209 207 206 206 206 204 205 208 209 204 198 193 188 184 180 170 158 146 128 114 99 88 80 74 72 69 67 62 58 52 46 41 35 29 22
216 213 215 214 210 209 208 208 211 213 218 223 220 217 218 225 233 227 219 214 210 220 229 224 222 240 243 242 247 245 247 250 246 245 244 239 232 225 223 221 221 224 221 213 206 202 202 205 210 210 210 208 203 201 203 203 200 200 204 205 201 195 189 184 178 172 165 160 153 139 123 105 92 81 77 74 70 66 61 56 51 47 43 38 34 29
216 209 211 213 209 210 209 208 210 212 218 224 220 218 220 224 230 229 220 216 220 226 231 227 224 235 253 249 249 245 246 251 249 251 251 246 241 234 228 225 224 226 227 225 221 215 205 200 203 206 208 204 195 198 202 201 198 198 201 203 199 192 187 183 179 175 172 169 164 154 136 117 100 87 80 75 69 62 55 51 46 41 36 31 28 26
217 211 209 208 206 209 210 209 210 212 219 225 222 222 224 226 234 237 235 232 228 224 219 221 222 230 253 248 248 247 244 249 253 255 257 253 250 244 237 231 226 227 228 228 228 227 220 209 204 202 205 202 197 200 202 200 199 199 200 201 200 196 190 186 183 181 179 177 176 171 157 139 119 102 90 80 69 59 50 43 36 29 25 23 21 19
219 216 212 211 209 210 211 211 212 214 219 225 226 227 228 232 237 242 252 239 222 214 213 219 218 217 246 246 243 241 241 248 254 258 262 260 258 255 249 241 233 229 228 228 226 226 225 220 213 208 207 205 203 205 205 203 203 203 202 202 204 201 195 192 189 188 187 186 185 181 178 173 158 134 109 90 70 55 43 32 25 20 17 17 16 14
222 219 216 216 215 213 213 213 215 216 220 224 226 229 231 238 242 243 240 222 209 210 222 226 224 219 237 248 242 242 249 257 260 261 267 265 262 260 254 246 240 234 230 228 225 223 221 218 216 215 213 210 208 209 208 208 206 205 206 206 206 205 203 200 195 195 195 193 192 188 187 192 188 172 142 106 68 40 28 21 15 12 10 10 12 12
225 218 216 219 219 215 212 214 217 219 222 224 227 229 231 236 238 234 212 205 196 221 228 230 228 220 224 244 247 255 264 267 265 264 270 269 264 264 260 249 241 238 234 229 227 223 220 219 218 217 217 215 214 214 214 213 212 212 213 212 210 210 210 209 205 204 204 202 202 199 196 198 200 197 192 171 10 360 3 4 1 1 2 2 6 8
231 225 219 217 221 217 212 213 217 219 221 223 225 226 223 212 215 208 178 193 201 224 231 232 226 219 229 243 251 260 265 267 266 265 265 257 254 259 263 257 244 240 237 232 229 225 222 223 224 225 224 223 222 222 222 221 220 219 220 220 219 217 217 219 217 215 215 213 211 210 208 209 213 219 232 262 295 320 332 337 340 347 351 352 356 360
233 232 225 219 219 216 214 216 215 215 218 220 220 220 213 177 152 217 219 65 216 227 236 232 222 221 235 245 253 257 261 267 266 264 259 251 254 258 260 263 255 243 238 235 231 227 225 225 228 232 233 232 231 230 230 230 229 227 227 227 227 225 224 226 226 226 225 223 221 220 220 222 227 232 243 262 282 297 306 314 321 329 335 339 342 346
227 232 226 220 218 214 212 218 219 217 220 223 224 226 224 213 199 207 205 178 202 224 226 213 207 215 232 247 259 259 261 265 263 263 260 259 264 264 262 261 256 245 235 234 232 228 227 228 230 234 237 238 239 237 237 237 236 234 233 233 233 232 233 232 232 232 232 231 229 230 231 234 236 240 246 257 272 284 291 298 305 313 319 324 328 333
229 238 233 223 221 218 213 216 219 218 222 227 227 227 229 225 223 227 229 223 220 218 190 188 195 225 239 253 261 257 262 262 261 264 261 259 261 261 262 258 252 246 234 228 229 227 227 229 232 234 237 240 242 242 241 241 242 240 238 237 237 238 239 239 236 237 238 236 236 238 239 240 243 247 251 256 265 274 281 288 295 302 307 311 317 323
229 241 241 232 226 224 219 217 219 218 220 223 223 225 229 231 233 233 234 235 228 230 212 197 209 234 245 257 257 253 258 255 254 257 254 254 255 254 257 253 245 243 235 226 224 224 224 228 232 235 237 239 242 244 245 246 248 247 242 241 241 243 244 244 243 243 242 241 242 244 244 245 248 251 254 257 263 270 275 281 288 292 296 301 308 314
234 245 246 238 231 226 223 220 222 223 223 222 224 228 228 227 233 231 221 216 203 227 232 212 220 228 231 250 257 254 251 242 240 242 240 246 249 246 246 243 239 238 235 229 223 222 223 225 229 233 237 239 242 245 247 249 249 245 241 239 240 245 249 251 251 249 248 248 249 249 250 251 252 253 255 258 260 264 269 275 281 285 288 294 301 308
236 245 248 242 236 229 222 222 224 223 224 226 229 232 227 214 217 217 209 180 175 223 256 219 225 225 224 238 253 248 240 236 234 229 229 237 240 238 237 233 234 235 231 226 220 218 220 220 222 226 232 236 240 244 246 247 247 243 240 239 239 242 247 250 252 252 252 252 252 253 254 254 253 253 255 257 258 261 265 271 276 279 284 290 297 304
234 239 245 242 237 228 218 220 224 222 222 226 229 233 231 224 219 215 215 212 195 200 228 218 227 225 228 238 243 236 232 233 230 223 225 231 231 235 235 225 224 227 223 219 215 214 216 217 220 223 226 230 234 239 241 242 244 243 242 242 242 243 243 245 246 248 250 251 252 253 253 253 253 253 254 255 257 258 261 267 271 275 280 287 294 300
234 232 237 237 231 226 219 219 221 222 222 223 223 225 225 225 223 222 226 221 208 196 178 182 227 225 227 235 231 225 223 226 232 233 237 244 240 242 240 228 224 221 217 216 213 212 214 218 223 226 226 226 228 231 234 238 241 241 242 242 242 245 246 246 246 247 248 249 250 251 252 254 254 253 253 254 256 257 259 264 269 272 277 283 290 295
231 229 233 233 229 230 228 225 225 226 227 228 227 225 224 223 223 222 229 225 221 222 204 186 217 222 227 235 230 225 225 230 241 249 256 261 247 232 232 238 235 222 215 214 212 213 217 219 224 227 227 226 227 229 231 234 235 236 238 238 240 244 246 248 250 251 251 250 251 252 253 254 253 252 252 251 253 256 258 262 266 268 273 279 284 288
235 231 233 235 237 238 236 234 233 228 228 233 236 235 232 230 226 221 220 223 222 225 225 223 233 226 229 239 239 233 231 235 245 251 259 265 248 229 226 235 235 219 212 213 213 214 217 218 222 228 230 229 228 229 230 232 235 237 238 239 241 242 244 250 254 253 253 253 252 252 253 253 252 251 251 252 253 255 257 259 261 265 270 274 276 279
235 227 228 233 240 244 242 242 242 233 223 225 229 233 233 233 232 230 235 240 232 223 220 217 236 236 232 238 245 245 241 244 249 250 258 265 256 243 235 236 229 213 206 207 209 212 214 215 219 224 226 225 225 226 228 231 234 236 238 239 241 244 246 250 253 255 256 255 253 253 253 252 250 248 249 251 252 254 258 258 257 261 265 266 268 272
229 220 221 225 234 243 241 241 242 238 234 232 228 226 229 232 233 234 237 240 236 231 226 217 214 234 236 242 247 248 247 251 254 254 257 259 253 242 233 230 221 209 204 202 204 210 213 214 214 215 216 217 220 224 226 229 232 235 240 242 243 246 249 250 254 257 259 259 256 254 253 252 251 249 248 248 250 256 260 254 252 257 258 259 261 266
235 226 223 217 209 222 229 231 233 233 236 240 239 237 235 233 231 232 234 230 228 231 227 220 222 235 243 253 254 250 249 254 257 255 250 245 240 231 223 221 218 211 205 200 201 209 216 217 213 210 211 213 216 219 221 224 229 232 236 240 242 246 248 250 254 258 261 262 259 257 256 253 250 246 243 242 246 253 254 246 246 252 253 254 256 259
237 234 230 227 225 227 233 237 238 236 236 239 242 242 240 234 229 231 231 225 226 230 226 228 238 243 246 253 253 250 252 254 252 244 236 234 237 229 217 215 218 214 206 200 200 208 215 215 211 208 209 210 210 213 216 221 226 229 232 237 241 246 248 251 256 260 264 266 266 264 257 247 243 244 246 246 247 253 256 243 238 245 250 249 250 253
229 231 233 234 235 236 238 241 242 241 240 240 242 242 240 238 234 232 231 230 231 231 230 238 242 242 246 249 248 247 249 248 243 236 234 236 232 220 212 214 217 215 207 201 201 208 212 212 210 206 205 204 204 209 217 222 226 229 231 235 240 246 250 255 260 263 266 269 272 270 260 251 250 254 257 256 253 258 265 248 234 239 245 245 246 250
225 231 234 235 239 242 243 243 243 243 244 244 244 242 238 236 237 237 239 240 238 235 240 247 246 245 249 252 249 247 247 250 252 239 230 222 211 208 211 215 218 215 207 203 205 208 210 210 206 200 197 199 203 213 223 227 232 236 238 241 245 251 256 259 262 263 266 269 270 268 265 266 269 264 261 260 256 259 267 257 241 238 240 242 245 247
227 234 237 236 241 245 245 245 244 244 245 246 246 246 242 240 243 246 249 251 249 247 250 253 251 251 254 253 250 249 248 250 252 235 217 210 205 207 208 210 217 216 210 207 207 209 210 208 201 194 194 199 208 224 233 238 245 249 251 251 253 257 259 260 262 262 264 265 265 266 268 274 277 269 263 262 258 257 264 262 249 240 237 239 243 247
239 236 236 237 240 243 245 246 245 245 246 247 249 250 249 249 251 253 254 256 255 253 253 251 249 252 257 253 248 247 246 248 248 234 220 215 212 212 210 211 217 217 212 207 204 207 210 207 201 198 204 213 225 240 245 249 254 257 259 259 260 262 263 264 265 264 265 265 265 268 270 274 279 273 264 262 257 254 261 261 249 242 238 237 243 252
297 259 247 248 250 247 244 242 243 245 247 248 249 250 250 250 252 254 255 257 257 256 254 249 246 251 256 253 246 245 246 245 239 232 227 224 220 217 216 219 218 214 209 202 197 204 208 209 209 210 219 234 246 257 261 263 264 264 266 265 264 265 264 265 266 265 267 268 268 272 273 276 282 275 267 265 259 254 262 260 246 240 237 237 245 256
313 303 293 295 280 258 249 244 242 243 242 244 247 250 252 251 251 253 254 256 260 260 256 253 251 253 254 250 243 242 245 242 235 233 232 227 223 221 222 223 218 210 203 195 194 202 207 211 216 219 228 240 250 258 263 267 269 269 269 266 264 264 263 264 264 262 264 267 269 275 277 280 285 279 273 271 260 251 260 262 249 240 237 239 247 254
301 300 304 306 293 274 262 248 240 236 230 240 248 251 255 254 251 251 252 254 258 259 256 258 258 254 252 248 243 243 248 248 242 238 233 224 222 224 224 221 213 204 199 194 195 201 208 214 218 221 230 239 247 256 263 269 272 272 272 270 269 270 269 269 269 267 268 270 270 275 278 281 284 281 277 275 262 249 252 255 248 242 239 240 246 251
294 291 297 299 294 289 275 247 231 227 234 244 248 250 254 258 256 252 249 249 254 255 253 253 253 250 248 245 242 243 247 245 240 235 229 223 223 225 223 215 207 201 198 195 196 202 209 213 216 221 230 240 249 260 267 271 273 274 276 276 276 276 276 276 276 274 275 275 273 275 276 277 281 282 282 278 265 253 250 248 246 247 247 244 242 243
291 288 288 291 292 289 266 229 212 230 239 240 243 244 247 251 246 238 233 236 244 247 244 243 243 243 240 236 234 237 237 234 232 231 229 227 223 220 216 210 205 201 200 200 203 208 211 213 217 224 235 246 255 262 265 267 271 275 278 278 278 279 279 280 280 278 278 278 276 275 275 274 279 287 286 275 265 260 253 244 241 246 248 240 231 233
284 288 289 290 288 280 258 220 203 208 215 213 213 220 224 219 211 210 212 219 229 232 231 230 228 224 222 221 224 227 225 226 230 230 229 226 218 210 205 204 205 206 208 209 208 210 213 215 221 230 242 251 257 261 264 267 273 277 279 280 283 286 287 284 279 275 275 277 276 277 279 279 285 291 286 271 266 260 239 218 212 217 222 220 221 228
273 282 290 290 285 275 265 220 184 183 181 182 182 183 186 186 186 190 190 191 202 210 209 207 203 198 197 199 204 205 206 214 225 230 229 220 207 200 198 199 203 209 213 211 210 212 216 222 230 240 248 254 257 260 264 270 276 279 282 284 288 293 294 287 281 277 276 276 277 279 283 286 290 290 278 262 253 231 203 190 188 194 203 209 219 231
269 272 278 287 295 280 253 213 174 180 181 179 177 173 171 167 166 170 169 157 156 165 172 176 182 187 188 187 191 197 202 211 222 230 225 211 199 197 200 201 207 213 213 210 211 216 222 229 238 245 250 253 257 262 269 276 282 287 290 290 290 294 296 293 290 288 283 279 278 278 278 281 284 274 245 228 216 200 192 183 177 185 201 213 223 235
263 259 261 279 307 297 242 208 186 163 168 175 178 176 170 160 157 161 162 154 154 156 159 164 165 167 172 176 187 200 209 215 221 220 212 203 198 200 203 204 208 211 209 207 211 218 226 233 239 245 251 256 262 270 275 280 288 295 297 294 292 294 298 301 301 295 285 281 280 277 271 271 267 234 203 201 197 190 187 180 177 190 209 220 228 236
254 255 255 268 296 299 242 199 181 157 161 172 180 178 170 163 163 169 169 164 162 159 157 164 173 181 191 196 200 208 212 213 212 204 195 193 195 197 199 200 201 202 202 205 210 215 222 230 240 248 254 260 265 271 276 283 292 297 298 296 295 298 303 306 303 295 287 284 281 274 262 245 216 192 190 194 191 186 185 182 185 199 213 223 231 239
247 257 254 256 275 286 261 183 158 150 152 164 177 178 175 175 183 190 182 172 172 173 170 177 199 222 233 224 202 195 190 192 196 192 186 185 186 189 193 196 199 201 204 208 214 220 230 241 250 253 256 261 268 275 283 291 297 300 299 299 300 303 306 307 302 295 290 285 278 264 235 205 190 189 193 193 189 187 188 188 194 204 216 226 234 243
227 243 254 250 259 274 269 182 148 140 136 148 167 176 181 189 197 200 196 185 179 180 183 193 212 229 234 228 211 192 183 184 187 189 191 192 193 194 196 198 200 204 209 215 222 231 241 248 249 250 259 273 282 290 295 297 299 300 299 300 302 305 307 306 301 296 290 282 268 238 207 194 193 198 198 191 186 187 190 192 197 207 218 230 241 253
216 221 232 240 242 261 288 279 151 127 105 98 131 165 178 187 186 190 196 189 177 174 179 186 195 205 213 215 208 193 185 184 183 184 187 189 190 192 193 194 197 201 206 211 216 221 228 235 244 260 278 290 296 298 298 298 299 299 299 301 304 306 306 305 301 296 288 275 251 217 201 197 200 202 197 190 186 188 191 195 201 209 221 237 250 260
226 226 231 237 239 253 291 307 227 156 115 81 81 110 136 150 153 161 173 173 170 173 180 184 184 182 185 190 190 188 188 187 185 185 187 187 188 190 191 193 196 198 198 203 210 221 236 250 266 280 290 296 298 298 297 296 298 298 300 303 305 306 305 303 299 291 281 266 238 212 204 204 208 205 198 193 191 191 196 203 208 213 226 242 253 263
226 227 231 237 239 243 261 285 246 202 183 134 98 102 122 140 142 145 150 153 156 163 173 181 180 175 175 179 183 186 187 187 188 189 190 191 192 194 195 197 198 199 201 209 225 247 268 281 288 292 295 297 297 295 295 295 297 298 300 303 304 304 304 301 293 283 273 255 228 213 210 211 212 208 201 197 196 197 205 217 222 222 231 245 257 266
214 213 217 227 235 234 225 208 180 173 179 185 171 150 164 163 153 152 158 159 157 161 166 175 180 180 181 182 183 185 185 185 187 190 193 198 201 203 208 212 213 217 229 246 266 278 285 291 293 294 294 294 293 292 293 294 296 298 300 301 301 302 302 298 287 276 264 240 220 216 218 214 209 205 203 203 203 206 216 226 229 229 238 251 259 264
199 200 203 210 220 221 211 197 184 169 157 164 168 168 177 178 172 174 179 177 174 172 173 177 181 184 186 186 188 197 205 208 213 219 228 237 241 244 249 253 257 263 265 268 275 279 280 282 285 287 288 288 289 291 293 295 297 298 299 299 299 299 298 291 273 262 250 228 219 223 222 209 202 202 206 208 212 222 230 231 231 238 247 254 257 262
188 198 198 192 194 199 197 190 188 188 180 174 174 173 175 180 182 186 187 185 180 177 178 181 184 187 195 204 214 228 240 247 251 253 258 261 260 259 261 262 264 266 266 266 270 271 270 273 277 279 282 285 288 293 295 297 298 298 296 296 295 293 290 276 252 246 241 228 226 230 217 202 201 207 211 215 228 243 242 232 233 241 246 250 256 264
191 193 190 185 186 192 190 186 188 193 189 184 185 182 177 179 187 191 190 190 190 193 196 199 200 205 218 231 238 242 244 247 250 251 254 258 258 257 257 258 260 262 261 262 265 266 267 270 275 278 283 287 292 296 297 297 296 294 291 290 287 283 275 258 238 238 238 233 232 225 209 202 207 210 214 228 246 245 231 225 232 240 245 252 261 269
192 188 184 184 186 186 183 180 184 191 189 185 189 190 185 185 192 196 195 195 199 206 211 214 217 225 233 237 238 238 239 241 244 246 248 251 252 251 251 255 262 265 264 262 263 266 270 275 280 286 290 293 296 297 296 293 290 286 282 278 274 268 260 245 234 237 237 232 226 216 206 204 208 213 226 247 252 236 225 231 239 244 251 259 265 270